DLH110 EDDS-EDDH

Flight info

Callsign DLH110
Flight time 0h 57m
Altitude 37000
Route OKIBA4H/07 OKIBA N851 RIMKI Z99 LOHRE DCT MASEK DCT ELNAT/N0446F360 P605 NOLGO NOLGO3P
Aircraft A320/M-SDE3FGHIRWY/LB1

Departure

Time 2026-04-26 20:21
Airport Stuttgart Airport (EDDS)

Arrival

Time 2026-04-26 21:19
Airport Hamburg Helmut Schmidt Airport (EDDH)
Time Latitude Longitude Altitude Speed Heading
2026-04-26 19:53 48.68897 9.19428 1315 ft 0 kts 344°
2026-04-26 20:14 48.68893 9.19430 1315 ft 3 kts 344°
2026-04-26 20:15 48.68867 9.19441 1314 ft 3 kts 344°
2026-04-26 20:15 48.68847 9.19449 1313 ft 4 kts 358°
2026-04-26 20:15 48.68822 9.19442 1312 ft 4 kts 40°
2026-04-26 20:15 48.68810 9.19412 1313 ft 4 kts 74°
2026-04-26 20:16 48.68807 9.19395 1313 ft 0 kts 74°
2026-04-26 20:18 48.68814 9.19431 1312 ft 8 kts 72°
2026-04-26 20:18 48.68842 9.19570 1310 ft 19 kts 73°
2026-04-26 20:19 48.68881 9.19784 1305 ft 19 kts 75°
2026-04-26 20:19 48.68832 9.19899 1298 ft 13 kts 152°
2026-04-26 20:19 48.68733 9.19967 1292 ft 18 kts 163°
2026-04-26 20:19 48.68626 9.20013 1286 ft 17 kts 164°
2026-04-26 20:20 48.68596 9.20144 1282 ft 17 kts 65°
2026-04-26 20:20 48.68612 9.20219 1280 ft 3 kts 76°
2026-04-26 20:20 48.68621 9.20273 1280 ft 11 kts 76°
2026-04-26 20:20 48.68708 9.20741 1272 ft 83 kts 73°
2026-04-26 20:21 48.68929 9.21889 1244 ft 141 kts 74°
2026-04-26 20:21 48.69234 9.23506 1465 ft 170 kts 74°
2026-04-26 20:21 48.69573 9.25213 2158 ft 170 kts 70°
2026-04-26 20:21 48.69978 9.26898 2864 ft 172 kts 70°
2026-04-26 20:22 48.70359 9.28627 3482 ft 175 kts 72°
2026-04-26 20:22 48.70726 9.30401 4018 ft 179 kts 73°
2026-04-26 20:22 48.71087 9.32223 4589 ft 182 kts 73°
2026-04-26 20:22 48.71439 9.34081 5150 ft 185 kts 74°
2026-04-26 20:23 48.71778 9.35982 5625 ft 193 kts 75°
2026-04-26 20:23 48.72123 9.38065 5852 ft 215 kts 75°
2026-04-26 20:23 48.72509 9.40368 6110 ft 234 kts 74°
2026-04-26 20:23 48.72940 9.42846 6396 ft 258 kts 74°
2026-04-26 20:24 48.73430 9.45574 6878 ft 275 kts 73°
2026-04-26 20:24 48.74068 9.48346 7609 ft 280 kts 59°
2026-04-26 20:24 48.75278 9.50642 8382 ft 282 kts 37°
2026-04-26 20:24 48.76977 9.52105 9180 ft 282 kts 15°
2026-04-26 20:25 48.78911 9.52523 9987 ft 282 kts 355°
2026-04-26 20:25 48.80216 9.52381 10492 ft 284 kts 353°
2026-04-26 20:25 48.82981 9.52055 10890 ft 314 kts 354°
2026-04-26 20:25 48.85229 9.51796 11211 ft 332 kts 354°
2026-04-26 20:26 48.87556 9.51533 11841 ft 338 kts 354°
2026-04-26 20:26 48.89894 9.51275 12542 ft 342 kts 354°
2026-04-26 20:26 48.92283 9.51014 13257 ft 346 kts 354°
2026-04-26 20:26 48.94686 9.50635 13939 ft 349 kts 348°
2026-04-26 20:27 48.97024 9.49589 14557 ft 351 kts 336°
2026-04-26 20:27 48.99235 9.47989 15188 ft 354 kts 333°
2026-04-26 20:27 49.01461 9.46337 15818 ft 357 kts 333°
2026-04-26 20:27 49.03704 9.44686 16444 ft 360 kts 334°
2026-04-26 20:28 49.05972 9.43026 17050 ft 363 kts 334°
2026-04-26 20:28 49.08257 9.41356 17666 ft 366 kts 334°
2026-04-26 20:28 49.10565 9.39668 18264 ft 369 kts 334°
2026-04-26 20:28 49.12858 9.37986 18806 ft 372 kts 334°
2026-04-26 20:29 49.15194 9.36262 19340 ft 374 kts 334°
2026-04-26 20:29 49.17547 9.34525 19864 ft 376 kts 334°
2026-04-26 20:29 49.19924 9.32844 20376 ft 378 kts 338°
2026-04-26 20:29 49.22451 9.31735 20930 ft 380 kts 348°
2026-04-26 20:30 49.25094 9.31325 21456 ft 383 kts 356°
2026-04-26 20:30 49.27764 9.31130 21973 ft 384 kts 355°
2026-04-26 20:30 49.30438 9.30928 22478 ft 386 kts 355°
2026-04-26 20:30 49.33132 9.30717 22977 ft 388 kts 355°
2026-04-26 20:31 49.35837 9.30610 23452 ft 391 kts
2026-04-26 20:31 49.38569 9.30975 23905 ft 394 kts
2026-04-26 20:31 49.41299 9.31383 24295 ft 396 kts
2026-04-26 20:31 49.44050 9.31798 24689 ft 398 kts
2026-04-26 20:32 49.46772 9.32206 25124 ft 397 kts
2026-04-26 20:32 49.49509 9.32613 25737 ft 393 kts
2026-04-26 20:32 49.52215 9.33012 26354 ft 388 kts
2026-04-26 20:32 49.54891 9.33404 26975 ft 383 kts
2026-04-26 20:33 49.57527 9.33792 27618 ft 378 kts
2026-04-26 20:33 49.60129 9.34181 28292 ft 373 kts
2026-04-26 20:33 49.62692 9.34568 28971 ft 367 kts
2026-04-26 20:33 49.65217 9.34952 29666 ft 361 kts
2026-04-26 20:34 49.67695 9.35327 30370 ft 354 kts
2026-04-26 20:34 49.70143 9.35692 30687 ft 357 kts
2026-04-26 20:34 49.72646 9.36059 30811 ft 365 kts
2026-04-26 20:34 49.75195 9.36543 30935 ft 373 kts
2026-04-26 20:35 49.77753 9.37468 31055 ft 382 kts 11°
2026-04-26 20:35 49.80351 9.38470 31189 ft 388 kts 11°
2026-04-26 20:35 49.82986 9.39485 31448 ft 390 kts 11°
2026-04-26 20:35 49.85613 9.40496 31932 ft 387 kts 10°
2026-04-26 20:36 49.88210 9.41494 32424 ft 384 kts 10°
2026-04-26 20:36 49.90788 9.42488 32923 ft 380 kts 10°
2026-04-26 20:36 49.93341 9.43474 33431 ft 376 kts 10°
2026-04-26 20:36 49.95866 9.44455 33954 ft 371 kts 10°
2026-04-26 20:37 49.98325 9.45408 34438 ft 366 kts 10°
2026-04-26 20:37 50.00801 9.46363 34646 ft 369 kts 10°
2026-04-26 20:37 50.03309 9.47328 34721 ft 375 kts 10°
2026-04-26 20:38 50.08501 9.48939 34741 ft 386 kts
2026-04-26 20:38 50.13945 9.49834 34750 ft 401 kts
2026-04-26 20:39 50.19587 9.50777 34755 ft 414 kts
2026-04-26 20:39 50.25354 9.51756 35005 ft 418 kts
2026-04-26 20:39 50.28246 9.52243 35253 ft 418 kts
2026-04-26 20:40 50.31131 9.52728 35495 ft 418 kts
2026-04-26 20:40 50.34023 9.53215 35738 ft 418 kts
2026-04-26 20:40 50.36912 9.53704 35973 ft 417 kts
2026-04-26 20:40 50.39770 9.54188 36200 ft 417 kts
2026-04-26 20:41 50.42656 9.54679 36419 ft 417 kts
2026-04-26 20:41 50.45535 9.55168 36627 ft 417 kts
2026-04-26 20:41 50.48426 9.55658 36836 ft 417 kts
2026-04-26 20:41 50.51311 9.56142 37054 ft 417 kts
2026-04-26 20:42 50.54191 9.56632 37226 ft 417 kts
2026-04-26 20:42 50.59968 9.57618 37273 ft 417 kts
2026-04-26 20:43 50.65741 9.58601 37275 ft 417 kts
2026-04-26 20:43 50.71506 9.59589 37277 ft 417 kts
2026-04-26 20:44 50.77277 9.60624 37276 ft 417 kts
2026-04-26 20:44 50.83050 9.61757 37277 ft 417 kts
2026-04-26 20:45 50.88777 9.62897 37272 ft 417 kts
2026-04-26 20:45 50.94543 9.64029 37282 ft 417 kts
2026-04-26 20:46 51.00313 9.65158 37274 ft 418 kts
2026-04-26 20:46 51.06081 9.66272 37281 ft 417 kts
2026-04-26 20:47 51.11848 9.67400 37273 ft 417 kts
2026-04-26 20:47 51.17610 9.68534 37301 ft 417 kts
2026-04-26 20:48 51.23373 9.69632 37277 ft 417 kts
2026-04-26 20:48 51.29142 9.70567 37279 ft 416 kts
2026-04-26 20:49 51.34919 9.71455 37295 ft 417 kts
2026-04-26 20:49 51.40646 9.72365 37311 ft 416 kts
2026-04-26 20:50 51.46416 9.73304 37290 ft 417 kts
2026-04-26 20:50 51.52185 9.74322 37291 ft 417 kts
2026-04-26 20:51 51.57960 9.75445 37289 ft 418 kts
2026-04-26 20:51 51.63725 9.76567 37290 ft 417 kts
2026-04-26 20:52 51.69493 9.77672 37288 ft 417 kts
2026-04-26 20:52 51.75263 9.78762 37288 ft 417 kts
2026-04-26 20:53 51.81030 9.79849 37292 ft 417 kts
2026-04-26 20:53 51.86795 9.80942 37291 ft 417 kts
2026-04-26 20:54 51.92529 9.82052 37291 ft 417 kts
2026-04-26 20:54 51.98288 9.83232 37294 ft 418 kts
2026-04-26 20:55 52.04037 9.84776 37291 ft 419 kts
2026-04-26 20:55 52.09772 9.86499 37291 ft 419 kts
2026-04-26 20:56 52.15510 9.88179 37291 ft 418 kts
2026-04-26 20:56 52.21261 9.89794 37293 ft 419 kts
2026-04-26 20:57 52.27004 9.91405 37297 ft 419 kts
2026-04-26 20:57 52.29836 9.92206 37105 ft 418 kts
2026-04-26 20:57 52.32708 9.93019 36428 ft 418 kts
2026-04-26 20:57 52.35580 9.93834 35743 ft 419 kts
2026-04-26 20:58 52.38456 9.94652 35041 ft 420 kts
2026-04-26 20:58 52.41342 9.95476 34344 ft 421 kts
2026-04-26 20:58 52.44239 9.96305 33540 ft 422 kts
2026-04-26 20:58 52.47138 9.97137 32761 ft 423 kts
2026-04-26 20:59 52.50024 9.97969 32177 ft 419 kts
2026-04-26 20:59 52.52885 9.98792 31596 ft 415 kts
2026-04-26 20:59 52.55716 9.99605 31032 ft 412 kts
2026-04-26 20:59 52.58526 10.00413 30496 ft 408 kts
2026-04-26 21:00 52.61325 10.01219 29870 ft 406 kts
2026-04-26 21:00 52.64057 10.02005 29267 ft 402 kts
2026-04-26 21:00 52.66803 10.02795 28650 ft 399 kts
2026-04-26 21:00 52.69531 10.03582 28071 ft 396 kts
2026-04-26 21:01 52.72239 10.04362 27494 ft 393 kts
2026-04-26 21:01 52.74927 10.05138 26923 ft 390 kts
2026-04-26 21:01 52.77599 10.05912 26362 ft 388 kts
2026-04-26 21:01 52.80247 10.06682 25814 ft 385 kts
2026-04-26 21:02 52.82860 10.07448 25040 ft 378 kts
2026-04-26 21:02 52.85440 10.08201 24163 ft 374 kts
2026-04-26 21:02 52.88000 10.08947 23343 ft 374 kts
2026-04-26 21:02 52.90517 10.09681 22828 ft 370 kts
2026-04-26 21:03 52.93044 10.10420 22317 ft 367 kts
2026-04-26 21:03 52.95545 10.11151 21819 ft 364 kts
2026-04-26 21:03 52.98039 10.11878 21331 ft 361 kts
2026-04-26 21:03 53.00510 10.12600 20852 ft 359 kts
2026-04-26 21:04 53.02966 10.13318 20381 ft 356 kts
2026-04-26 21:04 53.05400 10.14030 19926 ft 354 kts
2026-04-26 21:04 53.07817 10.14740 19476 ft 351 kts
2026-04-26 21:04 53.10203 10.15445 18816 ft 346 kts
2026-04-26 21:05 53.12559 10.16145 18335 ft 336 kts
2026-04-26 21:05 53.14781 10.16811 17971 ft 323 kts
2026-04-26 21:05 53.16972 10.17464 17565 ft 318 kts
2026-04-26 21:05 53.19148 10.18104 17162 ft 316 kts
2026-04-26 21:06 53.21306 10.18736 16759 ft 314 kts
2026-04-26 21:06 53.23459 10.19368 16361 ft 314 kts
2026-04-26 21:06 53.25623 10.20005 15694 ft 321 kts
2026-04-26 21:06 53.27847 10.20658 15095 ft 326 kts
2026-04-26 21:07 53.30079 10.21320 14666 ft 325 kts
2026-04-26 21:07 53.32301 10.21985 14257 ft 324 kts
2026-04-26 21:07 53.34516 10.22649 13770 ft 323 kts
2026-04-26 21:07 53.36722 10.23313 13297 ft 322 kts
2026-04-26 21:08 53.38928 10.23976 12825 ft 320 kts
2026-04-26 21:08 53.41120 10.24631 12360 ft 319 kts
2026-04-26 21:08 53.43296 10.25280 11903 ft 317 kts
2026-04-26 21:08 53.45463 10.25925 11452 ft 315 kts
2026-04-26 21:09 53.47623 10.26568 10965 ft 315 kts
2026-04-26 21:09 53.49751 10.27207 10486 ft 314 kts
2026-04-26 21:09 53.51900 10.27856 9985 ft 314 kts
2026-04-26 21:09 53.54042 10.28503 9447 ft 309 kts
2026-04-26 21:10 53.56118 10.29132 8927 ft 296 kts
2026-04-26 21:10 53.58103 10.29735 8413 ft 285 kts
2026-04-26 21:10 53.60021 10.30316 7906 ft 275 kts
2026-04-26 21:10 53.61873 10.30876 7409 ft 268 kts
2026-04-26 21:11 53.63700 10.31426 6901 ft 262 kts
2026-04-26 21:11 53.65474 10.31962 6395 ft 256 kts
2026-04-26 21:11 53.67201 10.32485 5862 ft 250 kts
2026-04-26 21:11 53.68899 10.32999 5360 ft 245 kts
2026-04-26 21:12 53.70540 10.33498 4837 ft 241 kts
2026-04-26 21:12 53.72143 10.34341 4317 ft 244 kts 18°
2026-04-26 21:12 53.73762 10.35291 3796 ft 248 kts
2026-04-26 21:12 53.75454 10.35084 3280 ft 245 kts 336°
2026-04-26 21:13 53.76773 10.33447 3088 ft 229 kts 304°
2026-04-26 21:13 53.77268 10.31900 3086 ft 215 kts 286°
2026-04-26 21:13 53.77422 10.29516 3104 ft 197 kts 261°
2026-04-26 21:13 53.77005 10.27406 3102 ft 184 kts 239°
2026-04-26 21:14 53.76254 10.25773 3113 ft 172 kts 232°
2026-04-26 21:14 53.75496 10.24214 3119 ft 168 kts 232°
2026-04-26 21:14 53.74770 10.22723 3110 ft 166 kts 232°
2026-04-26 21:14 53.74037 10.21222 3111 ft 165 kts 232°
2026-04-26 21:15 53.73302 10.19719 3040 ft 166 kts 232°
2026-04-26 21:15 53.72571 10.18225 2869 ft 165 kts 232°
2026-04-26 21:15 53.71842 10.16736 2662 ft 164 kts 232°
2026-04-26 21:15 53.71113 10.15250 2442 ft 164 kts 232°
2026-04-26 21:16 53.70384 10.13763 2222 ft 165 kts 232°
2026-04-26 21:16 53.69653 10.12273 1986 ft 165 kts 232°
2026-04-26 21:16 53.68917 10.10773 1762 ft 166 kts 232°
2026-04-26 21:16 53.68172 10.09256 1542 ft 171 kts 232°
2026-04-26 21:17 53.67404 10.07694 1310 ft 174 kts 233°
2026-04-26 21:17 53.66640 10.06140 1052 ft 175 kts 233°
2026-04-26 21:17 53.65894 10.04628 794 ft 158 kts 232°
2026-04-26 21:17 53.65210 10.03238 556 ft 150 kts 233°
2026-04-26 21:18 53.64570 10.01925 327 ft 145 kts 233°
2026-04-26 21:18 53.63929 10.00637 158 ft 142 kts 232°
2026-04-26 21:18 53.63310 9.99380 49 ft 132 kts 232°
2026-04-26 21:18 53.62810 9.98359 43 ft 90 kts 230°
2026-04-26 21:19 53.62488 9.97705 41 ft 61 kts 231°
2026-04-26 21:19 53.62295 9.97363 40 ft 26 kts 190°
2026-04-26 21:19 53.62192 9.97463 46 ft 14 kts 111°
2026-04-26 21:19 53.62191 9.97600 45 ft 11 kts 58°
2026-04-26 21:20 53.62238 9.97699 47 ft 13 kts 50°
2026-04-26 21:20 53.62317 9.97855 47 ft 20 kts 49°
2026-04-26 21:20 53.62393 9.98007 47 ft 17 kts 51°
2026-04-26 21:20 53.62455 9.98192 45 ft 19 kts 71°
2026-04-26 21:21 53.62485 9.98410 47 ft 16 kts 78°
2026-04-26 21:21 53.62506 9.98594 47 ft 16 kts 79°
2026-04-26 21:21 53.62526 9.98767 45 ft 14 kts 79°
2026-04-26 21:21 53.62547 9.98952 47 ft 18 kts 79°
2026-04-26 21:22 53.62570 9.99159 47 ft 15 kts 79°
2026-04-26 21:22 53.62590 9.99326 47 ft 14 kts 79°
2026-04-26 21:22 53.62606 9.99474 47 ft 12 kts 79°
2026-04-26 21:23 53.62636 9.99729 47 ft 11 kts 78°
2026-04-26 21:23 53.62679 9.99844 46 ft 16 kts 33°
2026-04-26 21:23 53.62785 9.99942 47 ft 18 kts 29°
2026-04-26 21:23 53.62875 10.00031 47 ft 14 kts 30°
2026-04-26 21:24 53.62962 10.00113 46 ft 15 kts 30°
2026-04-26 21:24 53.63049 10.00203 48 ft 13 kts 32°
2026-04-26 21:24 53.63109 10.00257 47 ft 8 kts 60°
2026-04-26 21:24 53.63111 10.00335 48 ft 6 kts 87°
2026-04-26 21:25 53.63112 10.00375 46 ft 0 kts 87°